Location: Blairvadach
(56.2780°N, 6.9720°W)
Time: 01:18:13
(UTC+00:00)

Envisat - Pass Details

Date: 26 February 2019
Orbit: 764 x 766 km, 98.2° (Epoch: 24 March)

Event Time Altitude Azimuth Distance (km) Brightness Sun altitude
Rises 20:11:26 0° 205° (SSW) 3,226 6.4 -19.6°
Reaches altitude 10° 20:14:13 10° 220° (SW) 2,305 5.8 -20.0°
Maximum altitude 20:18:10 23° 271° (W) 1,611 5.5 -20.5°
Drops below altitude 10° 20:22:09 10° 323° (NW) 2,317 6.2 -21.1°
Sets 20:24:58 0° 338° (NNW) 3,248 6.8 -21.4°
